Satellite: SO-50
Catalog number: 27607
Epoch time:      10307.93448200
Element set:    0310
Inclination:      064.5583 deg
RA of node:       292.0324 deg
Eccentricity:    0.0045836
Arg of perigee:   019.9234 deg
Mean anomaly:     340.3674 deg
Mean motion:   14.71597834 rev/day
Decay rate:       1.77e-06 rev/day^2
Epoch rev:           42294
Checksum:              301

Satellite: CO-55
Catalog number: 27844
Epoch time:      10307.53910652
Element set:    0971
Inclination:      098.7105 deg
RA of node:       314.5232 deg
Eccentricity:    0.0010219
Arg of perigee:   125.4947 deg
Mean anomaly:     234.7185 deg
Mean motion:   14.20742323 rev/day
Decay rate:        9.0e-07 rev/day^2
Epoch rev:           38087
Checksum:              293

Satellite: CO-57
Catalog number: 27848
Epoch time:      10307.51872373
Element set:     918
Inclination:      098.7157 deg
RA of node:       313.6261 deg
Eccentricity:    0.0010190
Arg of perigee:   130.6543 deg
Mean anomaly:     229.5514 deg
Mean motion:   14.20531067 rev/day
Decay rate:        3.8e-07 rev/day^2
Epoch rev:           38082
Checksum:              298

Satellite: AO-51
Catalog number: 28375
Epoch time:      10307.46858293
Element set:    0816
Inclination:      098.0740 deg
RA of node:       293.1280 deg
Eccentricity:    0.0085074
Arg of perigee:   034.9119 deg
Mean anomaly:     325.7611 deg
Mean motion:   14.40707087 rev/day
Decay rate:        5.8e-07 rev/day^2
Epoch rev:           33356
Checksum:              313

Satellite: GENESAT1
Catalog number: 29655
Epoch time:      10216.61700559
Element set:     226
Inclination:      040.0059 deg
RA of node:       067.3006 deg
Eccentricity:    0.0005079
Arg of perigee:   297.8744 deg
Mean anomaly:     064.7087 deg
Mean motion:   16.44862838 rev/day
Decay rate:  1.0637092e-01 rev/day^2
Epoch rev:           20777
Checksum:              320

Satellite: CP3
Catalog number: 31129
Epoch time:      10307.59527776
Element set:     714
Inclination:      097.9259 deg
RA of node:       339.6054 deg
Eccentricity:    0.0102454
Arg of perigee:   160.7695 deg
Mean anomaly:     199.7393 deg
Mean motion:   14.52326486 rev/day
Decay rate:       1.11e-06 rev/day^2
Epoch rev:           18809
Checksum:              331

Satellite: CO-65
Catalog number: 32785
Epoch time:      10307.21104525
Element set:    0827
Inclination:      097.8808 deg
RA of node:       010.0963 deg
Eccentricity:    0.0014410
Arg of perigee:   188.6064 deg
Mean anomaly:     171.4897 deg
Mean motion:   14.81752404 rev/day
Decay rate:       3.78e-06 rev/day^2
Epoch rev:           13607
Checksum:              304

Satellite: KKS-1
Catalog number: 33493
Epoch time:      10308.70987808
Element set:       6
Inclination:      098.1013 deg
RA of node:       069.5418 deg
Eccentricity:    0.0020830
Arg of perigee:   049.3044 deg
Mean anomaly:     310.9977 deg
Mean motion:   14.81178570 rev/day
Decay rate:       6.02e-06 rev/day^2
Epoch rev:            9628
Checksum:              301

Satellite: SOHLA-1
Catalog number: 33496
Epoch time:      10307.81494803
Element set:    0248
Inclination:      098.0674 deg
RA of node:       055.1576 deg
Eccentricity:    0.0007507
Arg of perigee:   115.3301 deg
Mean anomaly:     244.8696 deg
Mean motion:   14.69529411 rev/day
Decay rate:        7.1e-07 rev/day^2
Epoch rev:           09538
Checksum:              309

Satellite: TISAT-1
Catalog number: 36799
Epoch time:      10308.73215025
Element set:     281
Inclination:      098.1326 deg
RA of node:       009.4777 deg
Eccentricity:    0.0014284
Arg of perigee:   283.2117 deg
Mean anomaly:     076.7512 deg
Mean motion:   14.80216567 rev/day
Decay rate:       3.63e-06 rev/day^2
Epoch rev:            1710
Checksum:              288

Satellite: STUDSAT
Catalog number: 36801
Epoch time:      10307.75903331
Element set:    0090
Inclination:      098.1361 deg
RA of node:       008.3942 deg
Eccentricity:    0.0013070
Arg of perigee:   274.9228 deg
Mean anomaly:     085.0485 deg
Mean motion:   14.79766046 rev/day
Decay rate:      1.024e-05 rev/day^2
Epoch rev:           01695
Checksum:              284

/EX
SB KEPS @ AMSAT  $ORB10308.W
Orbital Elements  10308.WEATHER

HR AMSAT ORBITAL ELEMENTS FOR WEATHER SATELLITES
FROM WA5QGD FORT WORTH,TX November 4, 2010
BID: ORB10308.W
TO ALL RADIO AMATEURS BT

Satellite: NOAA-10
Catalog number: 16969
Epoch time:      10307.64414696
Element set:    0262
Inclination:      098.6456 deg
RA of node:       335.2233 deg
Eccentricity:    0.0012479
Arg of perigee:   161.2363 deg
Mean anomaly:     198.9281 deg
Mean motion:   14.27431908 rev/day
Decay rate:       -7.4e-07 rev/day^2
Epoch rev:           25547
Checksum:              320

Satellite: NOAA-11
Catalog number: 19531
Epoch time:      10307.68885548
Element set:    0270
Inclination:      098.7655 deg
RA of node:       034.3112 deg
Eccentricity:    0.0012202
Arg of perigee:   108.1863 deg
Mean anomaly:     252.0651 deg
Mean motion:   14.14939802 rev/day
Decay rate:      -2.29e-06 rev/day^2
Epoch rev:           14086
Checksum:              286

Satellite: NOAA-12
Catalog number: 21263
Epoch time:      10307.73473141
Element set:    0765
Inclination:      098.7629 deg
RA of node:       320.8636 deg
Eccentricity:    0.0013164
Arg of perigee:   119.2938 deg
Mean anomaly:     240.9551 deg
Mean motion:   14.25664037 rev/day
Decay rate:        5.5e-07 rev/day^2
Epoch rev:           01228
Checksum:              291

